Location: Aufkirchen
(47.9603°N, 11.3653°E)
Time: 14:02:21
(UTC+01:00)

Transit 2A Rocket - Pass Details

Date: 12 December 2020
Orbit: 592 x 910 km, 66.7° (Epoch: 21 January)

Event Time Altitude Azimuth Distance (km) Brightness Sun altitude
Rises 02:07:51 0° 284° (WNW) 3,381 - -55.6°
Reaches altitude 10° 02:11:55 10° 312° (NW) 2,374 - -55.1°
Maximum altitude 02:14:19 13° 339° (NNW) 2,130 - -54.7°
Drops below altitude 10° 02:16:40 10° 5° (N) 2,279 - -54.4°
Sets 02:20:24 0° 34° (NE) 3,122 - -53.9°
